This is the latest recevied weather packets stored in our database for station/object RK6MF-10. If no packets are shown the sender has not sent any weather packets the latest 10 day(s).
| Time | Temp. | Humidity | Pressure | Rain* | Wind** | Luminosity | Snow |
|---|---|---|---|---|---|---|---|
| 1777607791 | 6.11° C | 88% | 1014.5 hPa | - | - | - | - |
| 1777606894 | 6.11° C | 92% | 1014.5 hPa | - | - | - | - |
| 1777605994 | 5.56° C | 98% | 1014.6 hPa | - | - | - | - |
| 1777605094 | 5.56° C | 100% | 1014.6 hPa | - | - | - | - |
| 1777604194 | 5.56° C | 100% | 1014.7 hPa | - | - | - | - |
| 1777603293 | 5° C | 99% | 1014.7 hPa | - | - | - | - |
| 1777602393 | 5° C | 98% | 1014.7 hPa | - | - | - | - |
| 1777601493 | 5° C | 99% | 1014.7 hPa | - | - | - | - |
| 1777600593 | 5° C | 100% | 1014.7 hPa | - | - | - | - |
| 1777599692 | 5.56° C | 100% | 1014.5 hPa | - | - | - | - |
| 1777598792 | 5.56° C | 99% | 1014.5 hPa | - | - | - | - |
| 1777597892 | 5.56° C | 100% | 1014.6 hPa | - | - | - | - |
| 1777596992 | 5.56° C | 100% | 1014.7 hPa | - | - | - | - |
| 1777596092 | 5.56° C | 100% | 1014.8 hPa | - | - | - | - |
| 1777595192 | 6.11° C | 100% | 1014.9 hPa | - | - | - | - |
| 1777594292 | 5.56° C | 100% | 1014.8 hPa | - | - | - | - |
| 1777593391 | 6.11° C | 100% | 1014.9 hPa | - | - | - | - |
| 1777592491 | 6.11° C | 93% | 1014.8 hPa | - | - | - | - |
| 1777591591 | 6.11° C | 92% | 1014.8 hPa | - | - | - | - |
| 1777590691 | 6.11° C | 93% | 1014.9 hPa | - | - | - | - |
| 1777589791 | 6.11° C | 96% | 1014.9 hPa | - | - | - | - |
| 1777588891 | 6.11° C | 100% | 1015 hPa | - | - | - | - |
| 1777587991 | 6.11° C | 99% | 1015.1 hPa | - | - | - | - |
| 1777587091 | 6.11° C | 94% | 1015.2 hPa | - | - | - | - |
| 1777585294 | 6.67° C | 88% | 1015.4 hPa | - | - | - | - |
* Rain since midnight (hover to see other rain measurements)
** Current wind speed in m/s (hover to see current wind gust speed)